Location: Gälforsberget
(66.6500°N, 22.4167°E)
Time: 02:13:20
(UTC+00:00)

USA 234 - Pass Details

Date: 11 April 2026
Orbit: 1102 x 1106 km, 123.0° (Epoch: 4 January)

Event Time Altitude Azimuth Distance (km) Brightness Sun altitude
Rises 21:05:50 0° 105° (ESE) 3,923 5.8 -13.2°
Reaches altitude 10° 21:08:31 10° 113° (ESE) 2,965 5.1 -13.3°
Maximum altitude 21:14:35 39° 181° (S) 1,598 3.7 -13.5°
Drops below altitude 10° 21:20:41 10° 249° (WSW) 2,968 5.5 -13.7°
Sets 21:23:22 0° 257° (WSW) 3,926 6.2 -13.8°
